TimeCEST,TemperatureF,Dew PointF,Humidity,Sea Level PressureIn,VisibilityMPH,Wind Direction,Wind SpeedMPH,Gust SpeedMPH,PrecipitationIn,Events,Conditions,WindDirDegrees,DateUTC
12:50 AM,71.6,55.4,57,30.01,-9999.0,SSW,4.6,-,N/A,,Clear,210,2013-07-31 22:50:00
1:20 AM,71.6,53.6,53,30.01,-9999.0,SSW,6.9,-,N/A,,Clear,200,2013-07-31 23:20:00
1:50 AM,69.8,53.6,56,30.01,-9999.0,South,4.6,-,N/A,,Clear,190,2013-07-31 23:50:00
2:20 AM,69.8,53.6,56,30.01,-9999.0,South,4.6,-,N/A,,Clear,190,2013-08-01 00:20:00
2:50 AM,69.8,53.6,56,30.01,-9999.0,South,3.5,-,N/A,,Clear,180,2013-08-01 00:50:00
3:20 AM,69.8,53.6,56,30.01,-9999.0,South,3.5,-,N/A,,Clear,190,2013-08-01 01:20:00
3:50 AM,69.8,53.6,56,30.01,-9999.0,SSW,6.9,-,N/A,,Clear,210,2013-08-01 01:50:00
4:20 AM,69.8,55.4,60,30.01,-9999.0,South,5.8,-,N/A,,Clear,190,2013-08-01 02:20:00
4:50 AM,69.8,55.4,60,30.01,-9999.0,SSW,5.8,-,N/A,,Clear,200,2013-08-01 02:50:00
5:20 AM,68.0,55.4,64,30.01,-9999.0,SSW,4.6,-,N/A,,Clear,200,2013-08-01 03:20:00
5:50 AM,68.0,55.4,64,30.01,-9999.0,South,4.6,-,N/A,,Clear,190,2013-08-01 03:50:00
6:20 AM,66.2,55.4,68,30.01,-9999.0,SSW,4.6,-,N/A,,Clear,210,2013-08-01 04:20:00
6:50 AM,68.0,57.2,68,30.01,-9999.0,SSW,6.9,-,N/A,,Clear,210,2013-08-01 04:50:00
7:20 AM,71.6,57.2,60,30.01,-9999.0,SSW,4.6,-,N/A,,Clear,210,2013-08-01 05:20:00
7:50 AM,75.2,59.0,57,30.01,-9999.0,SSW,4.6,-,N/A,,Clear,210,2013-08-01 05:50:00
8:20 AM,78.8,62.6,57,30.04,-9999.0,WSW,6.9,-,N/A,,Clear,240,2013-08-01 06:20:00
8:50 AM,82.4,62.6,51,30.04,6.2,North,10.4,-,N/A,,Partly Cloudy,360,2013-08-01 06:50:00
9:20 AM,84.2,59.0,42,30.04,6.2,North,11.5,-,N/A,,Partly Cloudy,360,2013-08-01 07:20:00
9:50 AM,84.2,57.2,40,30.04,6.2,North,13.8,-,N/A,,Partly Cloudy,10,2013-08-01 07:50:00
10:20 AM,84.2,53.6,35,30.04,6.2,North,13.8,-,N/A,,Partly Cloudy,360,2013-08-01 08:20:00
10:50 AM,84.2,57.2,40,30.04,-9999.0,North,12.7,-,N/A,,Clear,10,2013-08-01 08:50:00
11:20 AM,86.0,60.8,43,30.04,-9999.0,North,13.8,-,N/A,,Clear,10,2013-08-01 09:20:00
11:50 AM,87.8,55.4,33,30.04,-9999.0,North,12.7,-,N/A,,Clear,360,2013-08-01 09:50:00
12:20 PM,87.8,60.8,40,30.04,-9999.0,North,10.4,-,N/A,,Clear,10,2013-08-01 10:20:00
12:50 PM,86.0,60.8,43,30.04,-9999.0,ENE,12.7,-,N/A,,Clear,60,2013-08-01 10:50:00
1:20 PM,86.0,59.0,40,30.04,-9999.0,NE,11.5,-,N/A,,Clear,50,2013-08-01 11:20:00
1:50 PM,87.8,59.0,38,30.04,-9999.0,NE,11.5,-,N/A,,Clear,50,2013-08-01 11:50:00
2:20 PM,87.8,59.0,38,30.04,-9999.0,NE,11.5,-,N/A,,Clear,50,2013-08-01 12:20:00
2:50 PM,87.8,59.0,38,30.01,-9999.0,NE,12.7,-,N/A,,Clear,50,2013-08-01 12:50:00
3:20 PM,86.0,59.0,40,30.01,-9999.0,NE,12.7,-,N/A,,Clear,40,2013-08-01 13:20:00
3:50 PM,87.8,60.8,40,30.01,-9999.0,NE,11.5,-,N/A,,Clear,50,2013-08-01 13:50:00
4:20 PM,86.0,60.8,43,30.01,-9999.0,NE,11.5,-,N/A,,Clear,50,2013-08-01 14:20:00
4:50 PM,87.8,59.0,38,30.01,-9999.0,ENE,9.2,-,N/A,,Clear,60,2013-08-01 14:50:00
5:20 PM,86.0,59.0,40,30.01,-9999.0,NE,11.5,-,N/A,,Clear,50,2013-08-01 15:20:00
5:50 PM,86.0,57.2,37,30.01,-9999.0,NE,8.1,-,N/A,,Clear,50,2013-08-01 15:50:00
6:20 PM,84.2,57.2,40,30.01,-9999.0,ENE,9.2,-,N/A,,Clear,60,2013-08-01 16:20:00
6:50 PM,84.2,59.0,42,30.01,-9999.0,NE,8.1,-,N/A,,Clear,50,2013-08-01 16:50:00
7:20 PM,82.4,59.0,45,30.01,-9999.0,ENE,8.1,-,N/A,,Clear,60,2013-08-01 17:20:00
7:50 PM,82.4,62.6,51,30.01,-9999.0,NE,5.8,-,N/A,,Clear,50,2013-08-01 17:50:00
8:20 PM,80.6,62.6,54,30.01,-9999.0,ENE,4.6,-,N/A,,Clear,60,2013-08-01 18:20:00
8:50 PM,77.0,62.6,61,30.01,-9999.0,East,2.3,-,N/A,,Clear,90,2013-08-01 18:50:00
9:20 PM,77.0,62.6,61,30.04,-9999.0,East,2.3,-,N/A,,Clear,90,2013-08-01 19:20:00
9:50 PM,73.4,62.6,69,30.04,-9999.0,Variable,2.3,-,N/A,,Clear,0,2013-08-01 19:50:00
10:20 PM,69.8,57.2,64,30.04,-9999.0,Variable,1.2,-,N/A,,Clear,0,2013-08-01 20:20:00
10:50 PM,71.6,57.2,60,30.04,-9999.0,SSW,5.8,-,N/A,,Clear,210,2013-08-01 20:50:00
11:20 PM,69.8,55.4,60,30.04,-9999.0,Variable,4.6,-,N/A,,Clear,0,2013-08-01 21:20:00
11:50 PM,69.8,55.4,60,30.04,-9999.0,SSW,5.8,-,N/A,,Clear,210,2013-08-01 21:50:00